Location: Augustenthal
(51.7167°N, 10.2833°E)
Time: 12:39:34
(UTC+00:00)

Cosmos 1703 Rocket - Visible Passes

Search period start: 20 September 2021 00:00
Search period end: 30 September 2021 00:00
Orbit: 606 x 632 km, 82.5° (Epoch: 19 September)

Date Brightness Start Highest point End Pass type
(mag) Time Alt. Az. Time Alt. Az. Time Alt. Az.
20 Sep 6.9 18:23:21 10° NW 18:25:49 15° W 18:28:15 10° WSW visible
23 Sep 7.2 04:20:25 10° ESE 04:22:43 14° E 04:25:00 10° NE visible
24 Sep 7.2 17:55:24 10° NW 17:57:40 14° W 17:59:55 10° WSW visible
27 Sep 7.0 03:52:06 10° ESE 03:54:33 15° E 03:57:02 10° NE visible
28 Sep 6.3 04:08:09 10° SE 04:11:42 24° E 04:15:17 10° NE visible
29 Sep 5.3 04:24:47 10° SSE 04:28:56 39° E 04:33:08 10° NNE visible
